This demonstration page uses our WeatherBlox Daily Observations layout. Learn more.

Left ArrowRight Arrow

31.31129, -92.44514

Hourly Observations for August 24, 2018

Temp ( °F °C ) Dew Point ( °F °C ) Humidity (%) Winds ( mph kmh ) Pressure ( in mb ) Visibility ( mi km ) Precip ( " mm )
12:53 am 00:53 Clear 77 25 67 19.4 71 71 ESE 3 6 29.99 1016 7 11 0.00 0.00
1:53 am 01:53 Clear 76 24.4 67 19.4 74 74 E 5 7 29.98 1015 7 11 0.00 0.00
2:53 am 02:53 Hazy 72 22.2 66 18.9 82 82 Calm 29.97 1015 6 10 0.00 0.00
3:53 am 03:53 Clear 70 21.1 64 17.8 82 82 Calm 29.98 1015 7 11 0.00 0.00
4:53 am 04:53 Clear with Mist and Fog 69 20.6 65 18.3 87 87 Calm 29.97 1015 6 10 0.00 0.00
5:53 am 05:53 Clear with Mist and Fog 69 20.6 65 18.3 87 87 Calm 29.98 1015 6 10 0.00 0.00
6:53 am 06:53 Sunny with Mist and Fog 68 20 65 18.3 90 90 Calm 29.99 1016 4 6 0.00 0.00
7:53 am 07:53 Hazy 74 23.3 67 19.4 79 79 E 5 7 29.99 1016 5 8 0.00 0.00
8:53 am 08:53 Hazy 79 26.1 67 19.4 67 67 SE 7 11 30.00 1016 5 8 0.00 0.00
9:53 am 09:53 Hazy 83 28.3 68 20 61 61 SSE 3 6 30.01 1016 5 8 0.00 0.00
10:53 am 10:53 Hazy 88 31.1 68 20 52 52 SW 6 9 30.01 1016 5 8 0.00 0.00
11:53 am 11:53 Hazy 91 32.8 68 20 47 47 Calm 30.01 1016 6 10 0.00 0.00
12:53 pm 12:53 Hazy 92 33.3 67 19.4 44 44 SE 8 13 29.98 1015 6 10 0.00 0.00
1:53 pm 13:53 Sunny with Light Rain 95 35 64 17.8 36 36 Calm 29.96 1015 7 11 0.00 0.03
2:53 pm 14:53 Partly Cloudy 97 36.1 64 17.8 34 34 ESE 7 11 29.94 1014 7 11 0.00 0.03
3:53 pm 15:53 Sunny 96 35.6 63 17.2 34 34 VRB 3 6 29.93 1013 7 11 0.00 0.00
4:53 pm 16:53 Mostly Cloudy 97 36.1 65 18.3 35 35 SE 6 9 29.92 1013 7 11 0.00 0.00
5:53 pm 17:53 Sunny 94 34.4 65 18.3 38 38 S 8 13 29.92 1013 7 11 0.00 0.00
6:53 pm 18:53 Sunny 93 33.9 64 17.8 38 38 SE 7 11 29.93 1013 7 11 0.00 0.00
7:53 pm 19:53 Clear 89 31.7 67 19.4 48 48 E 8 13 29.93 1014 7 11 0.00 0.00
8:53 pm 20:53 Clear 87 30.6 69 20.6 55 55 ESE 9 15 29.94 1014 7 11 0.00 0.00
9:53 pm 21:53 Clear 84 28.9 70 21.1 63 63 ESE 7 11 29.97 1015 7 11 0.00 0.00
10:53 pm 22:53 Clear 80 26.7 71 21.7 74 74 SSE 5 7 29.98 1015 7 11 0.00 0.00
11:53 pm 23:53 Clear 78 25.6 71 21.7 79 79 SSE 6 9 29.99 1016 7 11 0.00 0.00

Powered by AerisWeather